Mora, MN

11:22 PM CDT on August 18, 2017 (GMT -0500)
Mora Municipal

Weather History for KJMR - June, 2013

Change the Weather History Date:

Saturday, June 1, 2013

  Actual Average Record
Temperature  
Mean Temperature 57 °F -  
Max Temperature 64 °F 73 °F 101 °F (1934)
Min Temperature 50 °F 44 °F 30 °F (1986)
Degree Days  
Heating Degree Days 8    
Growing Degree Days 7 (Base 50)    
Moisture  
Dew Point 49 °F    
Average Humidity 81    
Maximum Humidity 94    
Minimum Humidity 66    
Precipitation  
Precipitation 0.00 in - - ()
Sea Level Pressure  
Sea Level Pressure 29.72 in    
Wind  
Wind Speed 3 mph (North)    
Max Wind Speed 21 mph    
Max Gust Speed 28 mph    
Visibility 10 miles    
Events Rain    
Averages and records for this station are not official NWS values.
T = Trace of Precipitation, MM = Missing Value Source: NWS Daily Summary

Daily Weather History Graph

Daily Weather History Graph

Search for Another Location

Airport or City:

Trip Planner

Search our weather history database for the weather conditions in past years. The results will help you decide how hot, cold, wet, or windy it might be!

Date:

Astronomy

Jun. 01, 2013 Rise Set
Actual Time 5:26 AM CDT 8:56 PM CDT
Civil Twilight 4:48 AM CDT 9:33 PM CDT
Nautical Twilight 3:59 AM CDT 10:23 PM CDT
Astronomical Twilight 2:55 AM CDT 11:27 PM CDT
Moon 1:43 AM CDT (6/1) 2:07 PM CDT (6/1)
Length of Visible Light 16h 44m
Length of Day
15h 30m
Last Quarter, 40% of the Moon is Illuminated
Jun 1
Last Quarter
Jun 8
New
Jun 16
First Quarter
Jun 23
Full
Jun 29
Last Quarter

Hourly Weather History & Observations

Time (CDT) Temp. Dew Point Humidity Pressure Visibility Wind Dir Wind Speed Gust Speed Precip Events Conditions
12:11 AM 57.2 °F 51.8 °F 82% 29.58 in 10.0 mi Calm Calm - N/A   Overcast
12:31 AM 55.4 °F 51.8 °F 88% 29.57 in 10.0 mi Calm Calm - N/A   Mostly Cloudy
12:51 AM 55.4 °F 51.8 °F 88% 29.58 in 10.0 mi Calm Calm - N/A   Scattered Clouds
1:11 AM 55.4 °F 51.8 °F 88% 29.58 in 10.0 mi Calm Calm - N/A   Scattered Clouds
1:31 AM 53.6 °F 50.0 °F 88% 29.58 in 10.0 mi Calm Calm - N/A   Clear
1:51 AM 53.6 °F 50.0 °F 88% 29.58 in 10.0 mi Calm Calm - N/A   Clear
2:11 AM 53.6 °F 50.0 °F 88% 29.58 in 10.0 mi Calm Calm - N/A   Mostly Cloudy
2:31 AM 53.6 °F 51.8 °F 94% 29.58 in 10.0 mi Calm Calm - N/A   Overcast
2:51 AM 55.4 °F 53.6 °F 94% 29.58 in 10.0 mi Calm Calm - N/A   Overcast
3:11 AM 55.4 °F 53.6 °F 94% 29.57 in 10.0 mi Calm Calm - N/A   Overcast
3:31 AM 55.4 °F 53.6 °F 94% 29.57 in 10.0 mi Calm Calm - N/A   Overcast
3:51 AM 55.4 °F 53.6 °F 94% 29.57 in 10.0 mi Calm Calm - N/A   Overcast
4:11 AM 55.4 °F 53.6 °F 94% 29.58 in 10.0 mi Calm Calm - N/A   Overcast
4:31 AM 55.4 °F 53.6 °F 94% 29.58 in 10.0 mi Calm Calm - N/A   Overcast
4:51 AM 55.4 °F 53.6 °F 94% 29.59 in 10.0 mi Calm Calm - N/A   Overcast
5:11 AM 55.4 °F 51.8 °F 88% 29.59 in 10.0 mi Calm Calm - N/A   Overcast
5:31 AM 55.4 °F 51.8 °F 88% 29.59 in 10.0 mi Calm Calm - N/A   Overcast
5:51 AM 53.6 °F 51.8 °F 94% 29.60 in 10.0 mi Calm Calm - N/A   Overcast
6:11 AM 53.6 °F 51.8 °F 94% 29.61 in 10.0 mi Calm Calm - N/A   Overcast
6:31 AM 55.4 °F 53.6 °F 94% 29.60 in 10.0 mi Calm Calm - N/A   Overcast
6:51 AM 55.4 °F 53.6 °F 94% 29.62 in 10.0 mi Calm Calm - N/A   Overcast
7:11 AM 55.4 °F 53.6 °F 94% 29.61 in 10.0 mi Calm Calm - N/A   Overcast
7:31 AM 55.4 °F 51.8 °F 88% 29.62 in 10.0 mi Calm Calm - N/A   Overcast
7:51 AM 55.4 °F 51.8 °F 88% 29.63 in 10.0 mi Calm Calm - N/A   Overcast
8:11 AM 55.4 °F 51.8 °F 88% 29.63 in 10.0 mi Calm Calm - N/A   Overcast
8:31 AM 55.4 °F 53.6 °F 94% 29.63 in 10.0 mi Calm Calm - N/A   Overcast
8:51 AM 57.2 °F 53.6 °F 88% 29.64 in 10.0 mi Calm Calm - N/A   Overcast
9:11 AM 59.0 °F 53.6 °F 82% 29.64 in 10.0 mi Calm Calm - N/A   Overcast
9:31 AM 59.0 °F 53.6 °F 82% 29.64 in 10.0 mi Calm Calm - N/A   Scattered Clouds
9:51 AM 62.6 °F 55.4 °F 77% 29.65 in 10.0 mi Calm Calm - N/A   Scattered Clouds
10:11 AM 64.4 °F 55.4 °F 73% 29.65 in 10.0 mi Calm Calm - N/A   Scattered Clouds
10:31 AM 64.4 °F 53.6 °F 68% 29.65 in 10.0 mi Calm Calm - N/A   Mostly Cloudy
10:51 AM 64.4 °F 53.6 °F 68% 29.66 in 10.0 mi NNW 5.8 mph - N/A   Overcast
11:11 AM 62.6 °F 53.6 °F 72% 29.67 in 10.0 mi NNW 6.9 mph - N/A   Overcast
11:31 AM 64.4 °F 55.4 °F 73% 29.67 in 10.0 mi North 4.6 mph - N/A   Overcast
11:51 AM 64.4 °F 53.6 °F 68% 29.67 in 10.0 mi North 6.9 mph - N/A   Overcast
12:11 PM 64.4 °F 53.6 °F 68% 29.68 in 10.0 mi NNW 10.4 mph 18.4 mph N/A   Overcast
12:31 PM 62.6 °F 53.6 °F 72% 29.69 in 10.0 mi NW 16.1 mph 21.9 mph N/A   Overcast
12:51 PM 60.8 °F 53.6 °F 77% 29.70 in 10.0 mi NW 15.0 mph 20.7 mph N/A   Overcast
1:11 PM 59.0 °F 51.8 °F 77% 29.71 in 5.0 mi NW 16.1 mph 21.9 mph N/A   Haze
1:31 PM 55.4 °F 51.8 °F 88% 29.72 in 10.0 mi NNW 12.7 mph 20.7 mph N/A Rain Light Rain
1:51 PM 55.4 °F 50.0 °F 82% 29.73 in 10.0 mi NNW 12.7 mph 18.4 mph N/A   Overcast
2:11 PM 55.4 °F 50.0 °F 82% 29.74 in 10.0 mi North 10.4 mph 19.6 mph N/A Rain Light Rain
2:31 PM 55.4 °F 50.0 °F 82% 29.75 in 10.0 mi NNW 11.5 mph 20.7 mph N/A Rain Light Rain
2:51 PM 55.4 °F 50.0 °F 82% 29.76 in 10.0 mi North 9.2 mph 23.0 mph N/A   Overcast
3:11 PM 55.4 °F 48.2 °F 77% 29.76 in 10.0 mi NNW 16.1 mph 24.2 mph N/A   Overcast
3:31 PM 55.4 °F 48.2 °F 77% 29.77 in 10.0 mi North 11.5 mph 23.0 mph N/A   Overcast
3:51 PM 53.6 °F 46.4 °F 77% 29.78 in 10.0 mi NNW 20.7 mph 27.6 mph N/A   Overcast
4:11 PM 53.6 °F 44.6 °F 72% 29.79 in 10.0 mi NNW 15.0 mph 25.3 mph N/A   Overcast
4:31 PM 51.8 °F 44.6 °F 76% 29.80 in 10.0 mi NNW 13.8 mph 21.9 mph N/A   Overcast
4:51 PM 50.0 °F 42.8 °F 76% 29.81 in 10.0 mi North 6.9 mph 23.0 mph N/A   Overcast
5:11 PM 50.0 °F 42.8 °F 76% 29.83 in 10.0 mi North 10.4 mph 18.4 mph N/A   Overcast
5:31 PM 50.0 °F 42.8 °F 76% 29.84 in 10.0 mi North 10.4 mph 19.6 mph N/A   Overcast
5:51 PM 50.0 °F 41.0 °F 71% 29.85 in 10.0 mi North 8.1 mph 18.4 mph N/A   Overcast
6:11 PM 50.0 °F 42.8 °F 76% 29.85 in 10.0 mi North 9.2 mph 19.6 mph N/A   Overcast
6:31 PM 50.0 °F 42.8 °F 76% 29.86 in 10.0 mi North 5.8 mph - N/A   Overcast
6:51 PM 50.0 °F 42.8 °F 76% 29.87 in 10.0 mi North 4.6 mph - N/A   Overcast
7:11 PM 50.0 °F 41.0 °F 71% 29.88 in 10.0 mi North 5.8 mph - N/A   Overcast
7:31 PM 50.0 °F 41.0 °F 71% 29.89 in 10.0 mi North 4.6 mph - N/A   Overcast
7:51 PM 50.0 °F 41.0 °F 71% 29.90 in 10.0 mi North 5.8 mph - N/A   Overcast
8:11 PM 50.0 °F 41.0 °F 71% 29.90 in 10.0 mi North 6.9 mph - N/A   Overcast
8:31 PM 50.0 °F 41.0 °F 71% 29.91 in 10.0 mi North 6.9 mph - N/A   Overcast
8:51 PM 50.0 °F 42.8 °F 76% 29.92 in 10.0 mi North 4.6 mph - N/A   Overcast
9:11 PM 50.0 °F 41.0 °F 71% 29.92 in 10.0 mi North 4.6 mph - N/A   Overcast
9:31 PM 50.0 °F 42.8 °F 76% 29.93 in 10.0 mi North 3.5 mph - N/A   Overcast
9:51 PM 50.0 °F 41.0 °F 71% 29.94 in 10.0 mi North 3.5 mph - N/A   Overcast
10:11 PM 50.0 °F 41.0 °F 71% 29.95 in 10.0 mi North 3.5 mph - N/A   Overcast
10:31 PM 50.0 °F 41.0 °F 71% 29.95 in 10.0 mi North 3.5 mph - N/A   Overcast
10:51 PM 50.0 °F 41.0 °F 71% 29.96 in 10.0 mi North 5.8 mph - N/A   Overcast
11:11 PM 50.0 °F 41.0 °F 71% 29.96 in 10.0 mi North 6.9 mph - N/A   Overcast
11:31 PM 50.0 °F 41.0 °F 71% 29.97 in 10.0 mi North 3.5 mph - N/A   Overcast
11:49 PM 50.0 °F 39.2 °F 66% 29.98 in 10.0 mi North 3.5 mph - N/A   Overcast